When you browse on this site, cookies collect data to enhance your experience and personalize the content and advertising you see.
Visit our Privacy Policy to learn more. By continuing to use the site, you agree to this use of cookies and data.
  • In United Kingdom
  • List of Countries
  • For 7 days
  • Water Temperature
  • Weather Map
  • Weather Widgets
  • user-avatar
    Login

    Hourly Weather Pivnichne

    Today, 22 August, Thursday

    Time Temperature Precipitation Wind Pressure Humidity
    00:00 +20°C° 0 mm 2 mps 748 mmHg 80%
    01:00 +19°C° 0 mm 2 mps 748 mmHg 82%
    02:00 +19°C° 0 mm 2 mps 748 mmHg 82%
    03:00 +19°C° 0 mm 2 mps 748 mmHg 84%
    04:00 +19°C° 0 mm 2 mps 748 mmHg 85%
    05:00 +18°C° 0 mm 2 mps 747 mmHg 87%
    06:00 +20°C° 0 mm 2 mps 748 mmHg 80%
    07:00 +23°C° 0 mm 2 mps 748 mmHg 73%
    08:00 +25°C° 0 mm 3 mps 748 mmHg 65%
    09:00 +27°C° 0 mm 3 mps 748 mmHg 60%
    10:00 +28°C° 0 mm 3 mps 748 mmHg 54%
    11:00 +30°C° 0 mm 3 mps 748 mmHg 49%
    12:00 +30°C° 0 mm 3 mps 748 mmHg 47%
    13:00 +32°C° 0 mm 4 mps 748 mmHg 45%
    14:00 +32°C° 0 mm 4 mps 748 mmHg 43%
    15:00 +32°C° 0 mm 4 mps 748 mmHg 47%
    16:00 +30°C° 0 mm 4 mps 748 mmHg 51%
    17:00 +29°C° 0 mm 4 mps 748 mmHg 54%
    18:00 +28°C° 0 mm 4 mps 749 mmHg 61%
    19:00 +26°C° 0 mm 4 mps 749 mmHg 69%
    20:00 +23°C° 0 mm 4 mps 749 mmHg 76%
    21:00 +22°C° 0 mm 4 mps 749 mmHg 81%
    22:00 +21°C° 0 mm 4 mps 749 mmHg 86%
    23:00 +21°C° 0 mm 4 mps 749 mmHg 92%

    Tomorrow, 23 August, Friday

    Time Temperature Precipitation Wind Pressure Humidity
    00:00 +20°C° 0 mm 4 mps 749 mmHg 91%
    01:00 +20°C° 0 mm 4 mps 750 mmHg 91%
    02:00 +19°C° 0 mm 5 mps 750 mmHg 91%
    03:00 +19°C° 0 mm 4 mps 750 mmHg 91%
    04:00 +18°C° 0 mm 4 mps 750 mmHg 92%
    05:00 +18°C° 0 mm 4 mps 749 mmHg 92%
    06:00 +19°C° 0 mm 4 mps 750 mmHg 87%
    07:00 +20°C° 0 mm 4 mps 750 mmHg 82%
    08:00 +21°C° 0 mm 4 mps 750 mmHg 77%
    09:00 +23°C° 0 mm 4 mps 750 mmHg 71%
    10:00 +25°C° 0 mm 4 mps 751 mmHg 66%
    11:00 +27°C° 0 mm 4 mps 751 mmHg 61%
    12:00 +27°C° 0.1 mm 4 mps 751 mmHg 60%
    13:00 +27°C° 0.1 mm 5 mps 750 mmHg 60%
    14:00 +28°C° 0.1 mm 5 mps 750 mmHg 60%
    15:00 +27°C° 0.3 mm 5 mps 750 mmHg 62%
    16:00 +26°C° 0.3 mm 5 mps 750 mmHg 64%
    17:00 +26°C° 0.3 mm 5 mps 750 mmHg 67%
    18:00 +25°C° 0 mm 5 mps 750 mmHg 70%
    19:00 +22°C° 0 mm 4 mps 750 mmHg 73%
    20:00 +21°C° 0 mm 4 mps 751 mmHg 76%
    21:00 +20°C° 0.1 mm 4 mps 750 mmHg 77%
    22:00 +19°C° 0.1 mm 4 mps 750 mmHg 78%
    23:00 +19°C° 0.1 mm 3 mps 750 mmHg 79%

    Day after tomorrow, 24 August, Saturday

    Time Temperature Precipitation Wind Pressure Humidity
    00:00 +18°C° 0 mm 4 mps 750 mmHg 79%
    01:00 +18°C° 0 mm 4 mps 750 mmHg 79%
    02:00 +17°C° 0 mm 4 mps 750 mmHg 79%
    03:00 +17°C° 0 mm 4 mps 750 mmHg 81%
    04:00 +15°C° 0 mm 4 mps 750 mmHg 82%
    05:00 +15°C° 0 mm 4 mps 750 mmHg 84%
    06:00 +17°C° 0 mm 4 mps 751 mmHg 78%
    07:00 +19°C° 0 mm 4 mps 751 mmHg 73%
    08:00 +20°C° 0 mm 4 mps 751 mmHg 67%
    09:00 +22°C° 0 mm 4 mps 751 mmHg 61%
    10:00 +25°C° 0 mm 4 mps 751 mmHg 56%
    11:00 +26°C° 0 mm 4 mps 751 mmHg 50%
    12:00 +27°C° 0 mm 4 mps 751 mmHg 48%
    13:00 +28°C° 0 mm 4 mps 751 mmHg 45%
    14:00 +28°C° 0 mm 4 mps 751 mmHg 43%
    15:00 +28°C° 0 mm 4 mps 750 mmHg 45%
    16:00 +27°C° 0 mm 4 mps 750 mmHg 46%
    17:00 +26°C° 0 mm 4 mps 750 mmHg 48%
    18:00 +23°C° 0 mm 4 mps 750 mmHg 52%
    19:00 +21°C° 0 mm 4 mps 750 mmHg 57%
    20:00 +19°C° 0 mm 3 mps 750 mmHg 61%
    21:00 +18°C° 0 mm 3 mps 750 mmHg 62%
    22:00 +17°C° 0 mm 3 mps 750 mmHg 63%
    23:00 +16°C° 0 mm 3 mps 750 mmHg 64%

    25 August, Sunday

    Time Temperature Precipitation Wind Pressure Humidity
    00:00 +16°C° 0 mm 3 mps 750 mmHg 65%
    01:00 +14°C° 0 mm 3 mps 750 mmHg 67%
    02:00 +14°C° 0 mm 3 mps 750 mmHg 68%
    03:00 +13°C° 0 mm 3 mps 750 mmHg 70%
    04:00 +13°C° 0 mm 3 mps 750 mmHg 71%
    05:00 +12°C° 0 mm 3 mps 750 mmHg 73%
    06:00 +16°C° 0 mm 3 mps 750 mmHg 67%
    07:00 +18°C° 0 mm 3 mps 750 mmHg 61%
    08:00 +20°C° 0 mm 3 mps 750 mmHg 55%
    09:00 +22°C° 0 mm 4 mps 750 mmHg 50%
    10:00 +25°C° 0 mm 4 mps 751 mmHg 44%
    11:00 +26°C° 0 mm 4 mps 751 mmHg 39%
    12:00 +27°C° 0 mm 4 mps 750 mmHg 38%
    13:00 +27°C° 0 mm 4 mps 750 mmHg 38%
    14:00 +28°C° 0 mm 4 mps 750 mmHg 37%
    15:00 +27°C° 0 mm 4 mps 750 mmHg 42%
    16:00 +26°C° 0 mm 4 mps 750 mmHg 47%
    17:00 +26°C° 0 mm 4 mps 750 mmHg 52%
    18:00 +23°C° 0 mm 4 mps 750 mmHg 59%
    19:00 +21°C° 0 mm 4 mps 750 mmHg 67%
    20:00 +19°C° 0 mm 3 mps 750 mmHg 75%
    21:00 +19°C° 0 mm 4 mps 751 mmHg 76%
    22:00 +18°C° 0 mm 4 mps 751 mmHg 78%
    23:00 +18°C° 0 mm 4 mps 751 mmHg 79%

    26 August, Monday

    Time Temperature Precipitation Wind Pressure Humidity
    00:00 +17°C° 0 mm 4 mps 751 mmHg 79%
    01:00 +15°C° 0 mm 4 mps 751 mmHg 79%
    02:00 +16°C° 0 mm 3 mps 751 mmHg 80%
    03:00 +14°C° 0 mm 3 mps 752 mmHg 81%
    04:00 +13°C° 0 mm 3 mps 752 mmHg 83%
    05:00 +13°C° 0 mm 3 mps 752 mmHg 85%
    06:00 +14°C° 0 mm 4 mps 752 mmHg 78%
    07:00 +17°C° 0 mm 4 mps 752 mmHg 71%
    08:00 +19°C° 0 mm 4 mps 753 mmHg 64%
    09:00 +20°C° 0 mm 4 mps 753 mmHg 57%
    10:00 +22°C° 0 mm 4 mps 753 mmHg 50%
    11:00 +25°C° 0 mm 4 mps 753 mmHg 43%
    12:00 +25°C° 0 mm 4 mps 753 mmHg 40%
    13:00 +26°C° 0 mm 4 mps 753 mmHg 37%
    14:00 +26°C° 0 mm 4 mps 752 mmHg 34%
    15:00 +26°C° 0 mm 4 mps 752 mmHg 37%
    16:00 +25°C° 0 mm 4 mps 752 mmHg 40%
    17:00 +24°C° 0 mm 3 mps 751 mmHg 43%
    18:00 +21°C° 0 mm 3 mps 751 mmHg 49%
    19:00 +19°C° 0 mm 3 mps 751 mmHg 55%
    20:00 +17°C° 0 mm 3 mps 751 mmHg 61%
    21:00 +17°C° 0 mm 3 mps 751 mmHg 64%
    22:00 +16°C° 0 mm 3 mps 751 mmHg 66%
    23:00 +16°C° 0 mm 3 mps 751 mmHg 68%

    27 August, Tuesday

    Time Temperature Precipitation Wind Pressure Humidity
    00:00 +15°C° 0 mm 2 mps 751 mmHg 70%
    01:00 +15°C° 0 mm 2 mps 751 mmHg 71%
    02:00 +14°C° 0 mm 2 mps 751 mmHg 73%
    03:00 +14°C° 0 mm 2 mps 751 mmHg 74%
    04:00 +13°C° 0 mm 2 mps 750 mmHg 76%
    05:00 +13°C° 0 mm 2 mps 750 mmHg 78%
    06:00 +15°C° 0 mm 2 mps 750 mmHg 70%
    07:00 +17°C° 0 mm 2 mps 750 mmHg 62%
    08:00 +20°C° 0 mm 1 mps 750 mmHg 54%
    09:00 +22°C° 0 mm 1 mps 750 mmHg 49%
    10:00 +24°C° 0 mm 1 mps 750 mmHg 44%
    11:00 +25°C° 0 mm 1 mps 749 mmHg 39%
    12:00 +26°C° 0 mm 1 mps 749 mmHg 37%
    13:00 +26°C° 0 mm 1 mps 748 mmHg 34%
    14:00 +27°C° 0 mm 1 mps 748 mmHg 32%
    15:00 +26°C° 0 mm 1 mps 748 mmHg 34%
    16:00 +26°C° 0 mm 2 mps 747 mmHg 37%
    17:00 +25°C° 0 mm 2 mps 747 mmHg 39%
    18:00 +23°C° 0 mm 2 mps 747 mmHg 45%
    19:00 +20°C° 0 mm 2 mps 747 mmHg 51%
    20:00 +18°C° 0 mm 2 mps 746 mmHg 57%
    21:00 +18°C° 0 mm 2 mps 746 mmHg 60%
    22:00 +17°C° 0 mm 2 mps 746 mmHg 63%
    23:00 +16°C° 0 mm 2 mps 746 mmHg 66%
    Show more